Mount Holly, NJ

1:48 AM EST on December 11, 2019 (GMT -0500)
South Jersey Regional

Weather History for KVAY - October, 2019

Change the Weather History Date:

Monday, October 14, 2019

  Actual Average (KPNE) Record (KPNE)
Temperature  
Mean Temperature 62 °F -  
Max Temperature 73 °F 64 °F 80 °F (2014)
Min Temperature 51 °F 44 °F 35 °F (2006)
Degree Days  
Heating Degree Days 3    
Growing Degree Days 12 (Base 50)    
Moisture  
Dew Point 52 °F    
Average Humidity 77    
Maximum Humidity 97    
Minimum Humidity 30    
Precipitation  
Precipitation 0.00 in - - ()
Sea Level Pressure  
Sea Level Pressure 29.98 in    
Wind  
Wind Speed 2 mph (West)    
Max Wind Speed 9 mph    
Max Gust Speed 17 mph    
Visibility 10 miles    
Events      
Averages and records for this station are not official NWS values.
T = Trace of Precipitation, MM = Missing Value Source: NWS Daily Summary

Daily Weather History Graph

Daily Weather History Graph

Search for Another Location

Airport or City:

Astronomy

Oct. 14, 2019 Rise Set
Actual Time 7:08 AM EDT 6:21 PM EDT
Civil Twilight 6:41 AM EDT 6:48 PM EDT
Nautical Twilight 6:09 AM EDT 7:20 PM EDT
Astronomical Twilight 5:38 AM EDT 7:51 PM EDT
Moon 7:10 PM EDT (10/14) 7:37 AM EDT (10/14)
Length of Visible Light 12h 07m
Length of Day
11h 13m
Waxing Gibbous, 99% of the Moon is Illuminated
Oct 14
Waxing Gibbous
Oct 21
Last Quarter
Oct 27
New
Nov 4
First Quarter
Nov 12
Full

Hourly Weather History & Observations

Time (EDT) Temp. Dew Point Humidity Pressure Visibility Wind Dir Wind Speed Gust Speed Precip Events Conditions
12:54 AM 57.9 °F 55.0 °F 90% 30.00 in 10.0 mi ENE 3.5 mph - N/A   Overcast
1:54 AM 57.9 °F 55.0 °F 90% 29.99 in 10.0 mi NNE 4.6 mph - N/A   Overcast
2:54 AM 57.0 °F 55.0 °F 93% 29.96 in 3.0 mi ENE 3.5 mph - N/A   Overcast
3:15 AM 57.0 °F 55.0 °F 93% 29.96 in 10.0 mi Calm Calm - N/A   Overcast
3:26 AM 57.0 °F 55.0 °F 93% 29.96 in 10.0 mi Calm Calm - N/A   Overcast
3:36 AM 57.0 °F 55.0 °F 93% 29.96 in 10.0 mi ENE 3.5 mph - N/A   Overcast
3:54 AM 57.0 °F 55.0 °F 93% 29.96 in 10.0 mi Calm Calm - N/A   Overcast
4:44 AM 57.0 °F 55.0 °F 93% 29.95 in 10.0 mi Calm Calm - N/A   Mostly Cloudy
4:54 AM 55.9 °F 54.0 °F 93% 29.95 in 10.0 mi Calm Calm - N/A   Scattered Clouds
5:15 AM 55.9 °F 54.0 °F 93% 29.96 in 10.0 mi Calm Calm - N/A   Mostly Cloudy
5:24 AM 55.0 °F 54.0 °F 96% 29.97 in 9.0 mi Calm Calm - N/A   Mostly Cloudy
5:36 AM 55.9 °F 55.0 °F 97% 29.97 in 9.0 mi Calm Calm - N/A   Overcast
5:54 AM 55.9 °F 55.0 °F 97% 29.97 in 10.0 mi Calm Calm - N/A   Overcast
6:54 AM 57.0 °F 55.0 °F 93% 29.99 in 10.0 mi Calm Calm - N/A   Overcast
7:05 AM 57.0 °F 55.0 °F 93% 29.99 in 10.0 mi Calm Calm - N/A   Overcast
7:54 AM 57.9 °F 55.0 °F 90% 30.00 in 10.0 mi Calm Calm - N/A   Overcast
8:54 AM 59.0 °F 55.0 °F 87% 30.02 in 10.0 mi Calm Calm - N/A   Overcast
9:16 AM 60.1 °F 55.0 °F 83% 30.02 in 10.0 mi Calm Calm - N/A   Overcast
9:36 AM 60.1 °F 55.9 °F 86% 30.02 in 10.0 mi Calm Calm - N/A   Scattered Clouds
9:54 AM 62.1 °F 55.9 °F 80% 30.02 in 10.0 mi Calm Calm - N/A   Clear
10:30 AM 63.0 °F 55.0 °F 75% 30.02 in 10.0 mi WSW 4.6 mph - N/A   Mostly Cloudy
10:50 AM 64.4 °F 55.4 °F 73% 30.01 in 10.0 mi Variable 3.5 mph - N/A   Scattered Clouds
10:54 AM 64.9 °F 55.0 °F 70% 30.01 in 10.0 mi Calm Calm - N/A   Scattered Clouds
11:54 AM 66.9 °F 53.1 °F 61% 29.99 in 10.0 mi WSW 5.8 mph - N/A   Clear
12:54 PM 70.0 °F 48.9 °F 47% 29.98 in 10.0 mi SW 6.9 mph - N/A   Clear
1:54 PM 71.1 °F 50.0 °F 47% 29.96 in 10.0 mi West 5.8 mph - N/A   Clear
2:54 PM 73.0 °F 39.9 °F 30% 29.94 in 10.0 mi WSW 8.1 mph 17.3 mph N/A   Clear
3:54 PM 73.0 °F 42.1 °F 33% 29.93 in 10.0 mi West 9.2 mph - N/A   Clear
4:54 PM 73.0 °F 39.9 °F 30% 29.92 in 10.0 mi West 8.1 mph - N/A   Clear
5:54 PM 71.1 °F 39.9 °F 32% 29.94 in 10.0 mi West 4.6 mph - N/A   Clear
6:54 PM 59.0 °F 46.9 °F 64% 29.96 in 10.0 mi Calm Calm - N/A   Clear
7:54 PM 55.0 °F 46.9 °F 74% 29.99 in 10.0 mi Calm Calm - N/A   Clear
8:54 PM 52.0 °F 46.9 °F 83% 30.00 in 10.0 mi Calm Calm - N/A   Clear
9:54 PM 51.1 °F 46.9 °F 86% 30.02 in 10.0 mi Calm Calm - N/A   Clear
10:54 PM 55.0 °F 46.0 °F 72% 30.05 in 10.0 mi WNW 3.5 mph - N/A   Clear
11:54 PM 52.0 °F 44.1 °F 74% 30.06 in 10.0 mi Calm Calm - N/A   Clear